OBJECT J, 59781

Orbit data source: Space-Track

You're viewing an Uncataloged Satellite

Recently launched and/or uncataloged satellites may have evolving metadata. Metadata may include but not limited to: Owner, Maufacturer, Bus, Motor, and Mission.

OBJECT J, 59781 is a satellite owned by Byuro 1440 (CIS) in SSO that was launched on Thu, 16 May 2024 UTC via a SOYUZ-2-1B launch vehicle from the Plesetsk Missile And Space Complex (PKMTR). Unknown objects in Earth's orbit typically refer to objects detected orbiting the Earth but have not yet been identified or cataloged. These objects could be anything from previously untracked satellites, spent rocket stages, debris from satellite collisions, or even natural meteoroids temporarily captured by Earth's gravity.

Loading next visibility...
OBJECT J details
Identifier
59781, 2024-092J
Orbit
SSO
Last TLE update12 hours ago
Origin
Flag of CISByuro 1440 (CIS)
ManufacturerByuro 1440
MissionOperational spacecraft
Bus & MotorRASSVET-2, Unknown motor
Mass~200 kg wet, ~200 kg dry
Launch date (UTC)
2024-05-16 (7 months ago)
Launch vehicle
SOYUZ-2-1B
Launch site
Plesetsk Missile And Space Complex (PKMTR)
Object typeUnknown
Shape & HBRUnknown
Radar Cross SectionMedium (>0.1 m² and <1 m²)

Expand to show TLE details & history

TLE from 12 hours ago
0 OBJECT J
1 59781U 24092J   24356.12032197  .00000518  00000-0  21162-3 0  9991
2 59781  98.6231 106.4848 0012331  12.7438 347.4054 14.31410182 31193
Epoch: 2024-12-21T02:53Z
Definitive object data (Epoch: 2024-12-21T02:53:15.818Z)
Latitude-0.00005°
Longitude-27.00714°
Altitude781.33 km
Speed7.468 km/s
True Right ascension07h 05m 56s
True Declination0° 00' 00"
Sunlit
Object was in full shadow at TLE epoch
Visualization TLE readout
Latitude19.3554°
Longitude-29.55506°
Altitude780.74 km
Speed7.47 km/s
Apparent Right ascension04h 49m 48s
Apparent Declination-10° 35' 04"
Sunlit
Object is in full shadow
Visualization observer readout
Local Sidereal Time13:45:28
Azimuth292.728° NW
Elevation-39.851°
Doppler factor1
Orbital elements
Apogee altitude792.992 km
Perigee altitude775.328 km
Semi-major axis7,162.297 km
Eccentricity0.0012331
Inclination98.6231°
RAAN106.4848°
Arg. of periapsis12.7438°
True anomaly347.37454°
Mean anomaly347.4054°
Eccentric anomaly347.38998°
Mean motion3.58067 °/min
BSTAR0.00021162
Orbital period100.54 mins
Loading maneuver chart data...
Loading historical data...
Loading historical data...
Loading historical data...
Loading historical data...
Loading historical data...
Loading historical data...
Loading historical data...

OBJECT J Visibility forecast

Observer location: undefined°, undefined

Span
Click to sort rows by Start time (UTC) header in descending order
Start Az.
Max El. time (UTC)
Max El. Az.
Max El.
End time (UTC)
End Az.
9 mins2024-12-21 20:14:17.714Z20.712° NNE2024-12-21 20:19:17.714Z123.025° SE41.651°2024-12-21 20:23:17.714Z181.758° SSW
4 mins2024-12-21 21:56:17.714Z318.538° NNW2024-12-21 21:58:17.714Z291.711° WNW15.485°2024-12-21 22:00:17.714Z267.217° W
8 mins2024-12-22 07:32:17.714Z164.298° S2024-12-22 07:35:17.714Z158.714° S44.19°2024-12-22 07:40:17.714Z347.026° N
|